[[{"header":{"parameterUnit":"m.s-1","parameterCategory":2,"la1":30.2991,"la2":30.254,"lo1":-89.0895,"lo2":-89.0444,"dy":0.0017,"dx":0.0017,"nx":28,"ny":28,"refTime":"2025-07-09T21:00:00:Z","depth":"0","parameterNumber":2,"parameterNumberName":"U-component_of_CURRENTS"},"data":[0,0,0,0,0,0,0,0,0,0,0,0,0,0,0,0,0,0,0,0,0,0,0,0,0,0,0,0,0,0,0,0,0,0,0,0,0,0,0,0,0,0,0,0,0,0,0,0,0,0,0,0,0,0,0,0,0,0,0.2468,0.2468,0,0.2537,0.2538,0.254,0.2527,0.2525,0.2524,0.2522,0.2661,0.2666,0.2671,0,0,0,0,0,0,0,0,0,0,0,0,0,0.2463,0.2463,0.2468,0.2468,0.2469,0.2537,0.2538,0.254,0.2527,0.2525,0.2523,0.2522,0.2659,0.2665,0.2671,0,0,0,0,0,0,0,0,0,0,0,0,0,0.2496,0.2463,0.2468,0.2468,0.2468,0.2537,0.2539,0.254,0.2528,0.2525,0.2523,0.2521,0.2657,0.2665,0.2672,0.2768,0,0,0.2696,0.2699,0,0,0,0,0,0,0,0,0.2494,0.2496,0.2467,0.2468,0.2468,0.2518,0.2588,0.2618,0.2528,0.2509,0.2522,0.2519,0.2619,0.2629,0.2652,0.2775,0.278,0.2697,0.2701,0.2705,0.2707,0,0,0,0,0,0,0,0.2491,0.2494,0.2499,0.2468,0.2469,0.2512,0.2513,0.2594,0.2581,0.2511,0.2509,0.2511,0.262,0.2645,0.2656,0.2783,0.2697,0.2703,0.2708,0.2711,0.3029,0.3033,0,0,0,0,0,0,0.247,0.2491,0.2497,0.2501,0.2471,0.2513,0.2515,0.2507,0.2578,0.2585,0.2513,0.251,0.2633,0.2647,0.2661,0.2804,0.2705,0.2712,0.2716,0.3025,0.303,0.3034,0,0,0,0,0,0,0.247,0.247,0.2494,0.2495,0.2501,0.2514,0.2507,0.251,0.2529,0.2579,0.2587,0.2527,0.2631,0.265,0.2753,0.2808,0.2716,0.2723,0.3021,0.3027,0.3032,0.3074,0,0,0,0,0,0,0.2469,0.2469,0.2469,0.2493,0.25,0.2539,0.2509,0.2513,0.2532,0.2529,0.2595,0.2605,0.2631,0.2741,0.2761,0.2817,0.2729,0.3016,0.3023,0.303,0.3068,0.308,0.3091,0,0,0,0,0,0.2469,0.247,0.2468,0.247,0.2494,0.254,0.2549,0.2553,0.2535,0.2559,0.2612,0.2603,0.2799,0.2751,0.2773,0.2832,0.3012,0.3021,0.3029,0.3063,0.3078,0.3091,0,0,0,0,0,0,0.2471,0.247,0.2468,0.2469,0.2504,0.2536,0.2553,0.2561,0.2621,0.2617,0.2657,0.2675,0.2793,0.2815,0.276,0.2948,0.2904,0.2917,0.2922,0.2937,0.2948,0.2951,0.2735,0,0,0,0,0,0.2472,0.2468,0.249,0.2496,0.2508,0.2535,0.2555,0.2563,0.2611,0.2631,0.2687,0.2757,0.2851,0.2889,0.2975,0.3075,0.3052,0.3129,0.3141,0.315,0.3171,0.3177,0.3189,0.3062,0.3062,0.3062,0,0,0.2474,0.2474,0.2472,0.2497,0.2518,0.2565,0.2542,0.2573,0.2632,0.2644,0.2749,0.2811,0.2893,0.3011,0.3063,0.3028,0.3171,0.3161,0.3168,0.3184,0.3186,0.3198,0.3208,0.3068,0.3067,0.3066,0,0,0.2483,0.2478,0.2483,0.2518,0.255,0.2584,0.2593,0.2642,0.2679,0.2787,0.2822,0.2914,0.3043,0.3115,0.3166,0.33,0.3244,0.3323,0.3371,0.3376,0.3384,0.3392,0.3345,0.3349,0.3312,0.3312,0.3312,0,0.2489,0.2492,0.25,0.2531,0.2563,0.2593,0.2634,0.27,0.2786,0.2834,0.2825,0.3031,0.31,0.3242,0.3299,0.3326,0.3291,0.33,0.3384,0.3392,0.3399,0.335,0.3353,0.3315,0.3315,0.3314,0.3314,0,0.2512,0.2525,0.2537,0.2584,0.2635,0.267,0.2751,0.2821,0.2868,0.2926,0.3069,0.3162,0.3265,0.3318,0.336,0.3467,0.3412,0.3401,0.333,0.3413,0.3357,0.3359,0.332,0.3318,0.3318,0.3317,0,0,0.2492,0.2537,0.2543,0.2572,0.2658,0.2702,0.2818,0.2923,0.2988,0.3092,0.3175,0.3363,0.3376,0.3439,0.3489,0.352,0.3549,0.3487,0.3486,0.3409,0.3509,0.333,0.3314,0.3529,0.3531,0.3532,0.3435,0,0.2505,0.2547,0.2584,0.2666,0.2698,0.278,0.2883,0.2992,0.3082,0.3181,0.328,0.3386,0.343,0.3468,0.3517,0.3563,0.3563,0.3574,0.3471,0.3468,0.3272,0.3315,0.3248,0.3144,0.3437,0.3437,0.3437,0,0.2515,0.2541,0.2589,0.2687,0.271,0.2778,0.2923,0.3024,0.3176,0.3241,0.3344,0.3402,0.3523,0.3513,0.3588,0.3582,0.3558,0.3564,0.3559,0.3384,0.3294,0.3122,0.3136,0.3138,0.344,0.3439,0.3439,0,0.2479,0.2555,0.2584,0.2618,0.2734,0.2788,0.2874,0.3029,0.3117,0.3264,0.3309,0.3436,0.3478,0.3512,0.3535,0.3556,0.3552,0.3563,0.3367,0.3351,0.3275,0.3249,0.3257,0.3575,0.3575,0.3575,0.3575,0,0.247,0.2503,0.2561,0.2581,0.2651,0.2753,0.2853,0.2966,0.3102,0.3187,0.3315,0.3369,0.3479,0.3489,0.3512,0.3425,0.3512,0.338,0.3325,0.3284,0.3261,0.3241,0.3251,0.3571,0.3572,0.3573,0.3574,0,0.2425,0.2456,0.2495,0.2588,0.2624,0.2677,0.2825,0.2899,0.3031,0.3135,0.3172,0.3311,0.3317,0.336,0.3388,0.3349,0.3215,0.3245,0.3159,0.3095,0.2903,0.2916,0.2607,0.2559,0.3026,0.3021,0.3017,0,0.2404,0.2407,0.2475,0.2492,0.2527,0.2617,0.2683,0.2849,0.2926,0.3087,0.3118,0.3156,0.3169,0.3115,0.3077,0.3008,0.2993,0.2863,0.291,0.2877,0.2855,0.2687,0.2662,0.2824,0.2818,0.2814,0.2811,0,0.2366,0.237,0.2394,0.2418,0.2466,0.2533,0.2634,0.2681,0.2857,0.2915,0.2962,0.2974,0.2944,0.2854,0.2749,0.2719,0.2741,0.2762,0.2793,0.2742,0.2502,0.2434,0.2873,0.2772,0.2775,0.2778,0.278,0.2782,0.2327,0.2317,0.2324,0.2346,0.2387,0.2415,0.2434,0.2521,0.258,0.2645,0.2743,0.2716,0.2731,0.2587,0.2519,0.2408,0.2388,0.2396,0.2423,0.226,0.2185,0.2485,0.2275,0.2276,0.2276,0.2277,0.2278,0,0.2276,0.2261,0.2264,0.2266,0.2254,0.2314,0.2372,0.2357,0.2341,0.2432,0.2436,0.2429,0.2343,0.234,0.2255,0.216,0.2067,0.2116,0.1995,0.2005,0.2361,0.2334,0.2049,0.2049,0.2049,0.2049,0.2049,0.2049,0.2248,0.2211,0.2197,0.2131,0.2124,0.2081,0.2077,0.2049,0.2082,0.2051,0.2051,0.2102,0.2195,0.2174,0.2094,0.2052,0.1965,0.1751,0.1787,0.2222,0.2255,0.2287,0.2268,0.1974,0.1974,0.1368,0.1364,0.1361]},{"header":{"parameterUnit":"m.s-1","parameterCategory":2,"la1":30.2991,"la2":30.254,"lo1":-89.0895,"lo2":-89.0444,"dy":0.0017,"dx":0.0017,"nx":28,"ny":28,"refTime":"2025-07-09T21:00:00:Z","depth":"0","parameterNumber":3,"parameterNumberName":"V-component_of_CURRENTS"},"data":[0,0,0,0,0,0,0,0,0,0,0,0,0,0,0,0,0,0,0,0,0,0,0,0,0,0,0,0,0,0,0,0,0,0,0,0,0,0,0,0,0,0,0,0,0,0,0,0,0,0,0,0,0,0,0,0,0,0,0.0187,0.0186,0,0.014,0.014,0.014,0.0113,0.0113,0.0113,0.0112,0.0136,0.0137,0.0138,0,0,0,0,0,0,0,0,0,0,0,0,0,0.0224,0.0224,0.0187,0.0186,0.0185,0.014,0.014,0.0139,0.0113,0.0113,0.0112,0.0112,0.0136,0.0137,0.0138,0,0,0,0,0,0,0,0,0,0,0,0,0,0.0198,0.0224,0.0187,0.0165,0.0163,0.014,0.014,0.0139,0.0113,0.0113,0.0112,0.0112,0.0136,0.0137,0.0138,0.0155,0,0,0.0142,0.0143,0,0,0,0,0,0,0,0,0.0199,0.0197,0.0169,0.0167,0.0164,0.013,0.0162,0.0147,0.0113,0.0134,0.0112,0.0112,0.014,0.0141,0.0135,0.0156,0.0157,0.0142,0.0143,0.0144,0.0144,0,0,0,0,0,0,0,0.0201,0.0198,0.017,0.0168,0.0165,0.0148,0.0144,0.0159,0.0143,0.0132,0.013,0.0122,0.0139,0.0133,0.0135,0.0157,0.0142,0.0144,0.0144,0.0145,0.025,0.0252,0,0,0,0,0,0,0.0205,0.02,0.0172,0.0169,0.0179,0.0148,0.0144,0.0143,0.0141,0.0139,0.0122,0.012,0.0131,0.0134,0.0136,0.0201,0.0144,0.0145,0.0146,0.0248,0.0251,0.0253,0,0,0,0,0,0,0.0206,0.0203,0.0174,0.0181,0.0176,0.0147,0.0147,0.0142,0.0139,0.0132,0.0132,0.0123,0.0131,0.0134,0.0161,0.0201,0.0146,0.0147,0.0246,0.0249,0.0252,0.0303,0,0,0,0,0,0,0.0208,0.0204,0.0208,0.0182,0.0176,0.0169,0.0147,0.0142,0.0133,0.0131,0.0133,0.0134,0.0131,0.0159,0.0163,0.0201,0.0148,0.0243,0.0247,0.0251,0.0299,0.0307,0.0315,0,0,0,0,0,0.0209,0.0218,0.0209,0.0205,0.0182,0.0169,0.0166,0.0144,0.0134,0.0138,0.0144,0.0134,0.0186,0.0162,0.0165,0.0205,0.0242,0.0246,0.0251,0.0295,0.0306,0.0315,0,0,0,0,0,0,0.0233,0.0215,0.0205,0.0206,0.0192,0.0164,0.0164,0.015,0.0155,0.0155,0.0151,0.0154,0.0194,0.0195,0.0168,0.0249,0.0216,0.0222,0.0249,0.0259,0.0267,0.03,0.0149,0,0,0,0,0,0.0241,0.0245,0.0221,0.0223,0.0218,0.0193,0.0185,0.0171,0.0167,0.0167,0.0171,0.0187,0.0216,0.0231,0.0248,0.0288,0.0277,0.0321,0.0329,0.0335,0.0367,0.0373,0.0383,0.0268,0.0268,0.0268,0,0,0.0248,0.024,0.024,0.0229,0.0216,0.0227,0.0188,0.018,0.0203,0.0172,0.021,0.021,0.0231,0.0277,0.0296,0.0282,0.0358,0.0341,0.0346,0.0375,0.0378,0.0389,0.0399,0.0271,0.027,0.027,0,0,0.0273,0.0261,0.0275,0.0269,0.0253,0.0248,0.0249,0.023,0.0235,0.0261,0.0256,0.0286,0.0312,0.0345,0.0364,0.0431,0.0395,0.0431,0.0503,0.0508,0.0517,0.0525,0.0498,0.0503,0.044,0.044,0.044,0,0.0283,0.0299,0.0277,0.029,0.0299,0.0265,0.0291,0.0293,0.0289,0.0319,0.0284,0.0354,0.0357,0.0443,0.0463,0.0452,0.043,0.0459,0.0517,0.0525,0.0532,0.0503,0.0508,0.0443,0.0443,0.0442,0.0442,0,0.0319,0.0333,0.034,0.0358,0.0368,0.0377,0.0381,0.0398,0.0398,0.0409,0.0473,0.047,0.052,0.0521,0.0511,0.0584,0.0539,0.0517,0.0487,0.0547,0.0511,0.0516,0.0447,0.0446,0.0445,0.0445,0,0,0.0343,0.0364,0.0368,0.0396,0.0405,0.0422,0.047,0.0518,0.0574,0.0566,0.064,0.0676,0.0667,0.069,0.0677,0.0684,0.0695,0.0625,0.0624,0.059,0.0676,0.0623,0.0622,0.0667,0.0669,0.067,0.0619,0,0.0381,0.0429,0.0435,0.0498,0.0527,0.0532,0.059,0.0631,0.0661,0.072,0.073,0.0785,0.0734,0.0754,0.0757,0.0716,0.0715,0.071,0.0633,0.0631,0.057,0.063,0.0662,0.0618,0.0623,0.0623,0.0624,0,0.0419,0.045,0.0513,0.0586,0.0603,0.0643,0.0743,0.0789,0.0862,0.0886,0.0934,0.0926,0.0961,0.0889,0.086,0.085,0.0782,0.0733,0.0729,0.0676,0.059,0.0567,0.0625,0.0615,0.063,0.063,0.0629,0,0.0456,0.0513,0.0574,0.0591,0.0661,0.0712,0.0762,0.0845,0.0917,0.0992,0.1039,0.1062,0.1069,0.1007,0.0896,0.0878,0.0829,0.0789,0.0681,0.0674,0.0691,0.0683,0.0732,0.0777,0.0777,0.0777,0.0777,0,0.0499,0.0547,0.0596,0.0628,0.073,0.0761,0.0884,0.0937,0.1033,0.1137,0.1126,0.1187,0.1096,0.1048,0.0939,0.0821,0.086,0.0718,0.0676,0.0705,0.07,0.0681,0.0653,0.0775,0.0776,0.0776,0.0776,0,0.0531,0.0554,0.0629,0.071,0.0746,0.0819,0.0953,0.1048,0.1114,0.1243,0.1267,0.1283,0.1211,0.1095,0.098,0.0877,0.0756,0.0711,0.0733,0.0696,0.0587,0.056,0.0559,0.0577,0.0603,0.0601,0.06,0,0.0552,0.0588,0.0686,0.0744,0.0784,0.0893,0.0985,0.1084,0.119,0.1303,0.1372,0.1335,0.1329,0.1128,0.0939,0.0748,0.0714,0.0649,0.0641,0.0613,0.0553,0.0547,0.0564,0.0667,0.0667,0.0666,0.0666,0,0.0594,0.0621,0.0685,0.0798,0.0895,0.1018,0.1149,0.1244,0.1366,0.1456,0.154,0.1532,0.1343,0.1178,0.0909,0.077,0.067,0.0633,0.0626,0.064,0.0622,0.0608,0.0639,0.0663,0.0663,0.0663,0.0663,0.0663,0.0623,0.0673,0.0751,0.0865,0.0977,0.1125,0.1241,0.1372,0.1522,0.1672,0.1649,0.1671,0.1449,0.1088,0.089,0.0622,0.0624,0.0569,0.0543,0.0544,0.0569,0.0573,0.0533,0.0533,0.0533,0.0532,0.0532,0,0.0658,0.0718,0.082,0.0956,0.1081,0.114,0.1343,0.1465,0.1625,0.1758,0.1816,0.1763,0.1464,0.1172,0.0793,0.0611,0.0569,0.0515,0.0556,0.058,0.061,0.0623,0.0578,0.0578,0.0578,0.0578,0.0578,0.0578,0.0678,0.0766,0.0818,0.1011,0.1116,0.1301,0.1419,0.159,0.1733,0.1918,0.1992,0.2031,0.1885,0.114,0.0734,0.0613,0.0572,0.0487,0.0477,0.0524,0.0529,0.0534,0.0544,0.0483,0.0483,0.0514,0.0514,0.0514]}],[{"header":{"parameterUnit":"m.s-1","parameterCategory":2,"la1":30.2991,"la2":30.254,"lo1":-89.0895,"lo2":-89.0444,"dy":0.0017,"dx":0.0017,"nx":28,"ny":28,"refTime":"2025-07-09T21:00:00:Z","depth":"2","parameterNumber":2,"parameterNumberName":"U-component_of_CURRENTS"},"data":[0,0,0,0,0,0,0,0,0,0,0,0,0,0,0,0,0,0,0,0,0,0,0,0,0,0,0,0,0,0,0,0,0,0,0,0,0,0,0,0,0,0,0,0,0,0,0,0,0,0,0,0,0,0,0,0,0,0,0.2285,0.2286,0,0.2319,0.232,0.232,0.2312,0.2311,0.231,0.2309,0.2449,0.2454,0.2458,0,0,0,0,0,0,0,0,0,0,0,0,0,0.2295,0.2294,0.2285,0.2286,0.2286,0.2319,0.232,0.232,0.2312,0.2311,0.231,0.2309,0.2448,0.2453,0.2459,0,0,0,0,0,0,0,0,0,0,0,0,0,0.2308,0.2294,0.2285,0.2284,0.2284,0.2319,0.232,0.232,0.2312,0.2311,0.231,0.2308,0.2446,0.2453,0.246,0.2528,0,0,0.248,0.2483,0,0,0,0,0,0,0,0,0.2307,0.2308,0.2284,0.2284,0.2284,0.2308,0.2374,0.2394,0.2313,0.2304,0.2309,0.2308,0.2411,0.2421,0.2432,0.2534,0.254,0.2481,0.2485,0.2488,0.249,0,0,0,0,0,0,0,0.2306,0.2307,0.2301,0.2284,0.2284,0.2309,0.2309,0.2378,0.2369,0.2305,0.2304,0.2304,0.2412,0.2425,0.2436,0.2542,0.2481,0.2487,0.2491,0.2494,0.2708,0.2709,0,0,0,0,0,0,0.2294,0.2306,0.23,0.2302,0.229,0.2309,0.231,0.2303,0.2365,0.2372,0.2305,0.2303,0.2414,0.2428,0.2441,0.2579,0.2488,0.2494,0.2498,0.2706,0.2708,0.271,0,0,0,0,0,0,0.2294,0.2293,0.2299,0.2303,0.2305,0.231,0.2304,0.2305,0.2319,0.2364,0.2373,0.2318,0.2414,0.2431,0.2525,0.2582,0.2497,0.2504,0.2704,0.2707,0.2709,0.2821,0,0,0,0,0,0,0.2294,0.2293,0.2295,0.2302,0.2304,0.2328,0.2305,0.2306,0.232,0.2319,0.2379,0.2389,0.2414,0.2515,0.2532,0.259,0.2509,0.2702,0.2706,0.2708,0.2815,0.2827,0.2837,0,0,0,0,0,0.2295,0.2296,0.2294,0.2294,0.2302,0.2329,0.2334,0.2335,0.2322,0.2341,0.239,0.2388,0.2544,0.2523,0.2542,0.2603,0.2701,0.2705,0.2708,0.281,0.2825,0.2837,0,0,0,0,0,0,0.2303,0.2296,0.2294,0.2293,0.2315,0.2327,0.2341,0.2343,0.2393,0.2398,0.2432,0.2449,0.2552,0.2555,0.253,0.2666,0.2614,0.2621,0.2684,0.2698,0.2709,0.2708,0.2515,0,0,0,0,0,0.2306,0.2303,0.2311,0.2316,0.2324,0.2336,0.2348,0.2355,0.2392,0.241,0.2461,0.2511,0.2582,0.262,0.268,0.2768,0.2736,0.2807,0.2818,0.2828,0.2837,0.2848,0.2861,0.2722,0.2722,0.2722,0,0,0.2309,0.2306,0.2305,0.2318,0.2331,0.2367,0.2341,0.2367,0.2412,0.2425,0.2516,0.2566,0.2614,0.2716,0.2758,0.2727,0.2845,0.2832,0.2841,0.2844,0.2853,0.2867,0.2879,0.2724,0.2724,0.2723,0,0,0.2319,0.2315,0.232,0.2344,0.2367,0.2391,0.24,0.2436,0.2463,0.2555,0.2579,0.2671,0.2759,0.2823,0.2859,0.2965,0.2908,0.296,0.302,0.3032,0.3044,0.3053,0.3005,0.301,0.2958,0.2958,0.2958,0,0.2327,0.2327,0.2331,0.2355,0.2379,0.2404,0.2438,0.2484,0.2555,0.2589,0.2594,0.2751,0.2819,0.2934,0.2984,0.2998,0.2953,0.2974,0.3047,0.3056,0.3065,0.3013,0.3017,0.2964,0.2963,0.2963,0.2962,0,0.2344,0.2355,0.2365,0.2403,0.2444,0.2475,0.2535,0.2596,0.2639,0.2677,0.2795,0.2891,0.2975,0.3017,0.3052,0.3148,0.3078,0.3067,0.3016,0.3086,0.3026,0.3028,0.2972,0.297,0.2969,0.2967,0,0,0.2332,0.2365,0.237,0.2391,0.2468,0.2499,0.2598,0.2676,0.2731,0.282,0.2893,0.3057,0.3085,0.3129,0.3177,0.3213,0.3267,0.3171,0.3168,0.3125,0.3229,0.3071,0.3056,0.3251,0.3253,0.3254,0.3154,0,0.2343,0.2375,0.2405,0.2469,0.2496,0.2566,0.2653,0.2738,0.2815,0.2904,0.2993,0.3086,0.3128,0.3182,0.3236,0.3266,0.3279,0.3291,0.3165,0.3161,0.3016,0.3058,0.286,0.2745,0.3155,0.3155,0.3156,0,0.2349,0.237,0.2411,0.2487,0.2507,0.2564,0.2693,0.2775,0.2903,0.2964,0.3063,0.3113,0.323,0.3238,0.3297,0.3287,0.3277,0.3275,0.327,0.3088,0.3008,0.2747,0.2732,0.3158,0.3158,0.3158,0.3158,0,0.2322,0.2379,0.2404,0.243,0.2527,0.2573,0.2649,0.2783,0.2854,0.2993,0.3039,0.3155,0.321,0.3236,0.3258,0.3273,0.326,0.3273,0.3103,0.3089,0.288,0.2844,0.3292,0.3292,0.3293,0.3293,0.3293,0,0.2314,0.2337,0.2385,0.2399,0.2462,0.2547,0.2637,0.2739,0.2867,0.2937,0.3055,0.3106,0.3211,0.3217,0.3236,0.3152,0.3232,0.3112,0.3065,0.2907,0.2877,0.321,0.3202,0.3289,0.329,0.3291,0.3291,0,0.2276,0.2302,0.2329,0.2407,0.244,0.2487,0.2615,0.268,0.2804,0.29,0.2936,0.3059,0.3058,0.3095,0.3122,0.3087,0.3049,0.2993,0.277,0.2699,0.2872,0.2871,0.2802,0.2796,0.279,0.2786,0.2782,0,0.2257,0.2259,0.2314,0.2328,0.2357,0.2436,0.2497,0.2645,0.271,0.285,0.2876,0.2911,0.292,0.2863,0.2815,0.2747,0.2875,0.2502,0.2529,0.2867,0.2828,0.2835,0.2841,0.2284,0.2277,0.2271,0.2266,0,0.2221,0.2226,0.2241,0.2266,0.2307,0.236,0.2449,0.2484,0.264,0.2694,0.2727,0.2733,0.269,0.2532,0.2439,0.2389,0.2505,0.2372,0.2786,0.2438,0.2371,0.2335,0.236,0.2212,0.2217,0.2221,0.2224,0.2226,0.2186,0.2176,0.2181,0.2199,0.2232,0.2248,0.2258,0.2327,0.2375,0.2411,0.2502,0.2424,0.2413,0.2163,0.2048,0.1949,0.214,0.206,0.2083,0.2112,0.2069,0.1996,0.1756,0.1758,0.1761,0.1763,0.1764,0,0.2136,0.2124,0.2124,0.2118,0.2096,0.216,0.2196,0.2159,0.2132,0.2176,0.2167,0.1937,0.18,0.1777,0.1551,0.1504,0.1542,0.143,0.1495,0.1548,0.1596,0.1532,0.1073,0.1071,0.1069,0.1067,0,0,0.2109,0.207,0.2054,0.1979,0.1973,0.1919,0.1907,0.1846,0.1834,0.1735,0.1674,0.1762,0.1764,0.1434,0.1353,0.1183,0.1369,0.1123,0.1681,0.1816,0.1861,0.1957,0.1917,0,0,0,0,0]},{"header":{"parameterUnit":"m.s-1","parameterCategory":2,"la1":30.2991,"la2":30.254,"lo1":-89.0895,"lo2":-89.0444,"dy":0.0017,"dx":0.0017,"nx":28,"ny":28,"refTime":"2025-07-09T21:00:00:Z","depth":"2","parameterNumber":3,"parameterNumberName":"V-component_of_CURRENTS"},"data":[0,0,0,0,0,0,0,0,0,0,0,0,0,0,0,0,0,0,0,0,0,0,0,0,0,0,0,0,0,0,0,0,0,0,0,0,0,0,0,0,0,0,0,0,0,0,0,0,0,0,0,0,0,0,0,0,0,0,0.0135,0.0134,0,0.0088,0.0088,0.0087,0.0063,0.0063,0.0063,0.0063,0.0091,0.0092,0.0093,0,0,0,0,0,0,0,0,0,0,0,0,0,0.0173,0.0172,0.0135,0.0134,0.0133,0.0088,0.0087,0.0087,0.0063,0.0063,0.0063,0.0063,0.0091,0.0092,0.0093,0,0,0,0,0,0,0,0,0,0,0,0,0,0.0146,0.0172,0.0135,0.0115,0.0112,0.0088,0.0087,0.0087,0.0063,0.0063,0.0063,0.0063,0.009,0.0091,0.0093,0.0107,0,0,0.0097,0.0098,0,0,0,0,0,0,0,0,0.0147,0.0145,0.0118,0.0116,0.0113,0.008,0.0111,0.0097,0.0063,0.0084,0.0063,0.0062,0.0093,0.0094,0.0087,0.0108,0.0109,0.0097,0.0098,0.0099,0.0099,0,0,0,0,0,0,0,0.0149,0.0146,0.0118,0.0118,0.0114,0.0097,0.0094,0.0108,0.0093,0.0082,0.008,0.0072,0.0092,0.0086,0.0088,0.011,0.0097,0.0098,0.0099,0.01,0.0188,0.0189,0,0,0,0,0,0,0.0154,0.0148,0.0119,0.0116,0.0128,0.0097,0.0093,0.0092,0.0091,0.009,0.0072,0.0071,0.0084,0.0086,0.0089,0.0153,0.0099,0.01,0.0101,0.0187,0.0188,0.019,0,0,0,0,0,0,0.0155,0.0152,0.0121,0.0129,0.0124,0.0096,0.0096,0.0091,0.0088,0.0083,0.0083,0.0073,0.0084,0.0087,0.0114,0.0152,0.01,0.0102,0.0185,0.0187,0.0189,0.025,0,0,0,0,0,0,0.0156,0.0153,0.0157,0.013,0.0124,0.0116,0.0096,0.0091,0.0082,0.008,0.0084,0.0086,0.0084,0.0113,0.0116,0.0153,0.0103,0.0183,0.0186,0.0188,0.0246,0.0254,0.0261,0,0,0,0,0,0.0158,0.0166,0.0157,0.0154,0.013,0.0116,0.0112,0.0092,0.0083,0.0087,0.0094,0.0086,0.0133,0.0115,0.0118,0.0157,0.0181,0.0185,0.0188,0.0243,0.0252,0.0261,0,0,0,0,0,0,0.0181,0.0163,0.0153,0.0154,0.014,0.0112,0.0112,0.0098,0.0103,0.0105,0.0102,0.0105,0.0143,0.0141,0.0121,0.0191,0.0158,0.0162,0.0198,0.0207,0.0215,0.0242,0.0104,0,0,0,0,0,0.0189,0.0193,0.0169,0.017,0.0165,0.014,0.0133,0.0119,0.0115,0.0116,0.0121,0.0134,0.0159,0.0175,0.0188,0.0227,0.0212,0.0255,0.0262,0.0269,0.0294,0.0296,0.0306,0.0201,0.0201,0.0201,0,0,0.0196,0.0188,0.0188,0.0176,0.0163,0.0174,0.0136,0.0129,0.0149,0.0121,0.0158,0.0158,0.0173,0.0215,0.0234,0.022,0.0286,0.0273,0.0278,0.0301,0.0301,0.0311,0.032,0.0204,0.0203,0.0203,0,0,0.022,0.0209,0.0222,0.0216,0.02,0.0194,0.0196,0.0177,0.0181,0.0206,0.02,0.0229,0.0251,0.0281,0.0297,0.0357,0.0321,0.0353,0.0421,0.0423,0.0431,0.0439,0.0411,0.0415,0.0363,0.0363,0.0363,0,0.0231,0.0246,0.0224,0.0236,0.0244,0.0212,0.0237,0.0237,0.0233,0.0258,0.0229,0.0289,0.0293,0.037,0.0388,0.0378,0.0353,0.0383,0.0432,0.0439,0.0446,0.0415,0.042,0.0366,0.0366,0.0365,0.0365,0,0.0265,0.0278,0.0285,0.0302,0.0311,0.032,0.0322,0.0338,0.0338,0.0345,0.0401,0.04,0.0445,0.0444,0.0436,0.0499,0.0455,0.0433,0.0407,0.046,0.0424,0.0428,0.0371,0.037,0.0369,0.0368,0,0,0.0289,0.0308,0.0312,0.0338,0.0347,0.0363,0.0408,0.045,0.05,0.0491,0.0558,0.0589,0.0581,0.06,0.0589,0.059,0.0602,0.0534,0.0533,0.0504,0.0576,0.0533,0.0531,0.0576,0.0577,0.0578,0.0523,0,0.0326,0.0372,0.0376,0.0436,0.0464,0.0468,0.0523,0.0558,0.0584,0.0637,0.0642,0.0691,0.0643,0.0664,0.0664,0.0619,0.0617,0.0618,0.0534,0.0532,0.0485,0.0538,0.0522,0.0472,0.0526,0.0527,0.0527,0,0.0362,0.0392,0.0453,0.0521,0.0537,0.0575,0.0669,0.0711,0.0774,0.0796,0.0837,0.0826,0.0852,0.0789,0.0749,0.0742,0.0679,0.0627,0.0624,0.0573,0.0497,0.0434,0.0476,0.0532,0.0532,0.0532,0.0531,0,0.04,0.0453,0.0512,0.0527,0.0594,0.0641,0.0689,0.0764,0.083,0.0896,0.0939,0.0952,0.0958,0.0892,0.0782,0.0765,0.0705,0.0669,0.0574,0.0568,0.0539,0.0528,0.0655,0.0655,0.0655,0.0655,0.0655,0,0.0442,0.0488,0.0533,0.0564,0.0661,0.069,0.0806,0.0855,0.0944,0.1039,0.1022,0.1074,0.0981,0.0928,0.0821,0.0703,0.0736,0.0606,0.0567,0.0556,0.0548,0.0592,0.0586,0.0653,0.0653,0.0654,0.0654,0,0.0474,0.0496,0.0567,0.0643,0.0678,0.0748,0.0875,0.0963,0.1022,0.1141,0.1163,0.1166,0.1088,0.0971,0.0853,0.0755,0.0644,0.0594,0.057,0.0532,0.0493,0.049,0.0497,0.0496,0.0494,0.0493,0.0492,0,0.0494,0.0529,0.0623,0.0679,0.0716,0.0821,0.0909,0.1002,0.1101,0.1196,0.1259,0.1214,0.1199,0.0994,0.0808,0.0623,0.0612,0.0491,0.0481,0.0523,0.0485,0.0484,0.0484,0.0448,0.0447,0.0446,0.0445,0,0.0535,0.0561,0.0622,0.0733,0.0826,0.0944,0.1068,0.1154,0.1268,0.1346,0.1414,0.1396,0.1203,0.1005,0.0747,0.0616,0.052,0.0465,0.0534,0.0492,0.0474,0.0436,0.0438,0.0436,0.0437,0.0438,0.0438,0.0439,0.0564,0.0612,0.0688,0.0799,0.0906,0.1047,0.1157,0.1276,0.1413,0.1529,0.1503,0.146,0.1244,0.0894,0.0668,0.0432,0.0466,0.038,0.0385,0.039,0.0397,0.0377,0.0321,0.0321,0.0321,0.0321,0.0321,0,0.0597,0.0657,0.0755,0.0886,0.1004,0.1066,0.1255,0.1356,0.1498,0.1572,0.1607,0.1362,0.1131,0.0875,0.0525,0.0332,0.0318,0.0253,0.0285,0.0295,0.0304,0.0308,0.0207,0.0206,0.0205,0.0205,0,0,0.0617,0.0702,0.0752,0.0937,0.104,0.1215,0.1327,0.1459,0.1547,0.1603,0.157,0.1506,0.1196,0.0916,0.0635,0.0428,0.0411,0.0377,0.0489,0.0572,0.0583,0.0394,0.0412,0,0,0,0,0]}],[{"header":{"parameterUnit":"m.s-1","parameterCategory":2,"la1":30.2991,"la2":30.254,"lo1":-89.0895,"lo2":-89.0444,"dy":0.0017,"dx":0.0017,"nx":28,"ny":28,"refTime":"2025-07-09T21:00:00:Z","depth":"4","parameterNumber":2,"parameterNumberName":"U-component_of_CURRENTS"},"data":[0,0,0,0,0,0,0,0,0,0,0,0,0,0,0,0,0,0,0,0,0,0,0,0,0,0,0,0,0,0,0,0,0,0,0,0,0,0,0,0,0,0,0,0,0,0,0,0,0,0,0,0,0,0,0,0,0,0,0.1439,0.1439,0,0.1376,0.1375,0.1373,0.1375,0.1376,0.1378,0.1379,0.1317,0.1314,0.1311,0,0,0,0,0,0,0,0,0,0,0,0,0,0.1432,0.1432,0.1439,0.1439,0.1439,0.1376,0.1374,0.1373,0.1374,0.1376,0.1378,0.138,0.1318,0.1314,0.131,0,0,0,0,0,0,0,0,0,0,0,0,0,0.1401,0.1432,0.1439,0.1438,0.1438,0.1376,0.1374,0.1372,0.1374,0.1376,0.1379,0.1381,0.1319,0.1314,0.131,0.1232,0,0,0.1295,0.1293,0,0,0,0,0,0,0,0,0.1403,0.14,0.1438,0.1438,0.1438,0.1393,0.1349,0.1328,0.1373,0.139,0.1379,0.1382,0.1346,0.1339,0.131,0.1229,0.1227,0.1295,0.1292,0.129,0.1289,0,0,0,0,0,0,0,0.1405,0.1402,0.1406,0.1438,0.1438,0.1397,0.1396,0.1344,0.1349,0.1388,0.139,0.1396,0.1345,0.1315,0.1309,0.1226,0.1295,0.1291,0.1288,0.1286,0.1338,0.1342,0,0,0,0,0,0,0.1433,0.1405,0.1408,0.1405,0.1435,0.1397,0.1394,0.1398,0.1349,0.1346,0.1394,0.1396,0.1321,0.1314,0.1307,0.1349,0.129,0.1286,0.1283,0.1334,0.1339,0.1344,0,0,0,0,0,0,0.1433,0.1434,0.1411,0.141,0.1405,0.1396,0.1399,0.1396,0.14,0.1355,0.1351,0.1407,0.1323,0.1313,0.1299,0.1342,0.1283,0.1279,0.1329,0.1336,0.1342,0.1346,0,0,0,0,0,0,0.1433,0.1434,0.1453,0.1412,0.1407,0.1392,0.1397,0.1393,0.1402,0.1405,0.1363,0.1358,0.1324,0.1306,0.1294,0.1335,0.1275,0.1324,0.1332,0.134,0.1341,0.1352,0.1362,0,0,0,0,0,0.1433,0.1448,0.1454,0.1455,0.143,0.1393,0.1385,0.138,0.1401,0.1394,0.1385,0.1361,0.1353,0.1303,0.1288,0.1328,0.132,0.133,0.1339,0.1336,0.135,0.1361,0,0,0,0,0,0,0.1452,0.1449,0.1454,0.1469,0.1444,0.1397,0.1403,0.1395,0.1377,0.14,0.1358,0.135,0.1379,0.136,0.1307,0.1387,0.1355,0.1362,0.1359,0.1371,0.1381,0.1423,0.1271,0,0,0,0,0,0.1466,0.1481,0.1458,0.147,0.1467,0.1439,0.1431,0.1426,0.1404,0.1401,0.1379,0.1388,0.1398,0.1387,0.1392,0.1378,0.138,0.1425,0.1435,0.1443,0.1479,0.1516,0.153,0.1375,0.1375,0.1375,0,0,0.1477,0.148,0.1489,0.1476,0.1463,0.1443,0.1439,0.1438,0.1433,0.1394,0.1397,0.1413,0.1412,0.1428,0.1442,0.1412,0.1484,0.1455,0.146,0.1493,0.1527,0.1541,0.1554,0.1382,0.1381,0.138,0,0,0.1492,0.1511,0.1523,0.1504,0.15,0.1473,0.1483,0.1457,0.1466,0.1451,0.1469,0.1504,0.148,0.1498,0.1501,0.1572,0.1549,0.1609,0.1659,0.1692,0.1703,0.1714,0.1691,0.1699,0.1597,0.1597,0.1597,0,0.151,0.1514,0.1516,0.151,0.1501,0.1492,0.1481,0.1473,0.145,0.1478,0.1472,0.1536,0.1516,0.1566,0.1611,0.1588,0.16,0.1585,0.1698,0.1709,0.1719,0.1694,0.1703,0.1598,0.1598,0.1598,0.1598,0,0.1508,0.152,0.1525,0.1516,0.1502,0.1494,0.1483,0.1496,0.1514,0.1524,0.1602,0.1592,0.1633,0.1656,0.164,0.1737,0.1716,0.1707,0.1644,0.1734,0.1703,0.1712,0.16,0.1599,0.1599,0.1599,0,0,0.1515,0.1525,0.1528,0.1525,0.1508,0.1488,0.1506,0.1519,0.1557,0.1587,0.1637,0.1695,0.1735,0.1752,0.176,0.1805,0.1852,0.1801,0.1802,0.1739,0.1906,0.1755,0.1749,0.1866,0.1869,0.1871,0.1835,0,0.151,0.1513,0.1512,0.1498,0.149,0.1494,0.1502,0.153,0.1563,0.1609,0.168,0.1743,0.1754,0.1793,0.1835,0.186,0.1889,0.1862,0.1866,0.1866,0.1688,0.176,0.1881,0.1841,0.1843,0.1845,0.1846,0,0.149,0.1499,0.1502,0.1501,0.15,0.1493,0.1524,0.1535,0.1617,0.1662,0.1753,0.1801,0.1884,0.1881,0.1954,0.1943,0.1947,0.1961,0.1958,0.1834,0.1735,0.1753,0.1862,0.1861,0.1859,0.1858,0.1857,0,0.1471,0.1477,0.1488,0.1481,0.1487,0.1507,0.1515,0.1576,0.1608,0.1725,0.1771,0.1867,0.1913,0.1965,0.1986,0.1985,0.2052,0.2018,0.1886,0.1872,0.2008,0.1998,0.2094,0.2094,0.2094,0.2094,0.2095,0,0.1436,0.1441,0.149,0.1487,0.1504,0.1515,0.1553,0.1593,0.1661,0.1713,0.1812,0.1859,0.1956,0.199,0.2002,0.1956,0.2045,0.1918,0.1872,0.2007,0.1998,0.2009,0.2,0.2093,0.2093,0.2094,0.2094,0,0.1394,0.143,0.1445,0.1483,0.1496,0.1514,0.1553,0.157,0.1667,0.1729,0.1779,0.1871,0.192,0.1966,0.2025,0.1945,0.1938,0.1907,0.2026,0.1983,0.1722,0.1714,0.1728,0.1723,0.1718,0.1715,0.1712,0,0.1364,0.1378,0.1443,0.1454,0.1472,0.1506,0.151,0.1577,0.1597,0.1722,0.1732,0.1829,0.188,0.1814,0.1881,0.1855,0.1853,0.18,0.1803,0.1741,0.1695,0.1694,0.1692,0.1705,0.1704,0.1702,0.1701,0,0.1307,0.1361,0.1379,0.1416,0.1428,0.1427,0.145,0.1452,0.1534,0.1638,0.1663,0.1683,0.1714,0.1731,0.1727,0.1718,0.1804,0.1754,0.1763,0.1765,0.1712,0.1671,0.1674,0.1686,0.1688,0.169,0.1691,0,0.1276,0.1284,0.1332,0.1342,0.1366,0.1329,0.1348,0.1348,0.1376,0.1509,0.1517,0.1614,0.1711,0.1659,0.1659,0.1629,0.1601,0.153,0.155,0.1567,0.1532,0.1443,0.1311,0,0,0,0,0,0.1227,0.122,0.1235,0.1234,0.1256,0.1263,0.1287,0.131,0.1398,0.1374,0.1441,0.1475,0.1474,0.1517,0.1452,0.1566,0.1597,0.1478,0.1524,0.1602,0.1619,0.1593,0,0,0,0,0,0,0.119,0.1212,0.1207,0.1145,0.1125,0.1116,0.1127,0.1178,0.117,0.1285,0.1298,0.1381,0.1409,0.1518,0.1434,0.144,0.1429,0.1534,0.1529,0.1592,0.1608,0.1622,0.1601,0,0,0,0,0]},{"header":{"parameterUnit":"m.s-1","parameterCategory":2,"la1":30.2991,"la2":30.254,"lo1":-89.0895,"lo2":-89.0444,"dy":0.0017,"dx":0.0017,"nx":28,"ny":28,"refTime":"2025-07-09T21:00:00:Z","depth":"4","parameterNumber":3,"parameterNumberName":"V-component_of_CURRENTS"},"data":[0,0,0,0,0,0,0,0,0,0,0,0,0,0,0,0,0,0,0,0,0,0,0,0,0,0,0,0,0,0,0,0,0,0,0,0,0,0,0,0,0,0,0,0,0,0,0,0,0,0,0,0,0,0,0,0,0,0,0.0074,0.0073,0,0.0057,0.0057,0.0057,0.0047,0.0047,0.0047,0.0046,0.0109,0.0111,0.0113,0,0,0,0,0,0,0,0,0,0,0,0,0,0.0097,0.0096,0.0074,0.0073,0.0073,0.0057,0.0057,0.0057,0.0047,0.0047,0.0047,0.0046,0.0108,0.0111,0.0113,0,0,0,0,0,0,0,0,0,0,0,0,0,0.0086,0.0096,0.0074,0.0064,0.0063,0.0057,0.0057,0.0057,0.0047,0.0047,0.0047,0.0046,0.0108,0.011,0.0113,0.0139,0,0,0.0122,0.0123,0,0,0,0,0,0,0,0,0.0087,0.0086,0.0066,0.0065,0.0063,0.0052,0.0088,0.0087,0.0047,0.0056,0.0046,0.0046,0.0096,0.01,0.01,0.0142,0.0144,0.0122,0.0124,0.0125,0.0126,0,0,0,0,0,0,0,0.0088,0.0086,0.0069,0.0066,0.0064,0.006,0.0059,0.0087,0.0082,0.0055,0.0054,0.0048,0.0096,0.0097,0.0101,0.0145,0.0122,0.0125,0.0126,0.0128,0.021,0.0211,0,0,0,0,0,0,0.0085,0.0087,0.007,0.0069,0.0072,0.006,0.0058,0.0058,0.008,0.0081,0.0048,0.0048,0.0092,0.0098,0.0104,0.0156,0.0125,0.0128,0.0129,0.021,0.021,0.0211,0,0,0,0,0,0,0.0086,0.0084,0.0071,0.0075,0.0073,0.006,0.0059,0.0058,0.0061,0.0073,0.0077,0.0053,0.0092,0.01,0.0142,0.0158,0.0129,0.0132,0.0209,0.021,0.021,0.0249,0,0,0,0,0,0,0.0087,0.0085,0.0088,0.0075,0.0072,0.0073,0.0059,0.0057,0.0057,0.0056,0.0079,0.0084,0.0092,0.0138,0.0145,0.0161,0.0134,0.0208,0.0209,0.021,0.0247,0.0251,0.0254,0,0,0,0,0,0.0088,0.0093,0.0089,0.0087,0.0076,0.0073,0.0073,0.0063,0.0057,0.0064,0.0085,0.0083,0.0147,0.0141,0.0149,0.0167,0.0208,0.0209,0.021,0.0245,0.025,0.0254,0,0,0,0,0,0,0.0104,0.0092,0.0087,0.0088,0.0084,0.0071,0.0074,0.0068,0.0087,0.009,0.0103,0.011,0.0147,0.0153,0.0145,0.019,0.0172,0.0175,0.0196,0.0201,0.0204,0.0206,0.0136,0,0,0,0,0,0.0109,0.0113,0.0099,0.0102,0.01,0.0089,0.0087,0.0081,0.009,0.0096,0.0116,0.0135,0.0157,0.0176,0.0194,0.0232,0.0214,0.0243,0.0246,0.0249,0.0255,0.0235,0.0237,0.0214,0.0214,0.0214,0,0,0.0114,0.011,0.0111,0.0106,0.0102,0.0114,0.0088,0.0088,0.0105,0.0104,0.0145,0.0152,0.0169,0.0205,0.0221,0.0214,0.0246,0.0251,0.0254,0.0257,0.0236,0.0238,0.024,0.0215,0.0215,0.0215,0,0,0.0132,0.0125,0.0136,0.0135,0.0128,0.013,0.0132,0.0129,0.0133,0.0167,0.0167,0.0183,0.0228,0.0235,0.0246,0.0281,0.0263,0.0286,0.0315,0.0295,0.0297,0.0298,0.0277,0.0276,0.0291,0.0292,0.0292,0,0.014,0.0152,0.0139,0.0149,0.0158,0.0142,0.0163,0.0167,0.0181,0.0198,0.0186,0.0232,0.0239,0.0278,0.0286,0.0289,0.0276,0.03,0.03,0.0301,0.0301,0.0279,0.0277,0.0294,0.0293,0.0293,0.0293,0,0.0164,0.0176,0.0182,0.0199,0.021,0.0221,0.0225,0.024,0.0247,0.0255,0.0287,0.0287,0.0311,0.0311,0.0314,0.0328,0.0317,0.0303,0.0289,0.0306,0.0281,0.0279,0.0296,0.0296,0.0295,0.0295,0,0,0.0179,0.0197,0.0201,0.0221,0.0237,0.0251,0.0283,0.0314,0.0339,0.0343,0.0372,0.039,0.0377,0.0386,0.0377,0.0361,0.0347,0.0341,0.0339,0.032,0.0306,0.0294,0.029,0.0337,0.0337,0.0337,0.0287,0,0.0206,0.0241,0.0248,0.0296,0.0318,0.0323,0.036,0.0384,0.04,0.0425,0.0409,0.0439,0.041,0.0419,0.0396,0.036,0.0343,0.0362,0.0293,0.0291,0.0278,0.0288,0.0336,0.0285,0.0284,0.0284,0.0283,0,0.023,0.0254,0.0303,0.035,0.0361,0.0393,0.045,0.0479,0.0505,0.0515,0.0524,0.0512,0.0498,0.0461,0.0399,0.0414,0.0368,0.033,0.0327,0.0302,0.0275,0.0264,0.0279,0.0279,0.0279,0.028,0.028,0,0.0253,0.0295,0.0342,0.0355,0.0404,0.0435,0.0472,0.0512,0.055,0.0575,0.0593,0.0571,0.0558,0.0494,0.0413,0.0409,0.0332,0.0312,0.0258,0.0257,0.0265,0.0264,0.027,0.027,0.027,0.027,0.0271,0,0.0279,0.0314,0.0356,0.0379,0.0447,0.047,0.0545,0.0571,0.0612,0.0666,0.0641,0.0654,0.0566,0.0512,0.043,0.0336,0.0342,0.0266,0.0245,0.0282,0.0283,0.0263,0.0262,0.0269,0.0269,0.0269,0.027,0,0.0294,0.0318,0.0373,0.0432,0.0459,0.0509,0.0596,0.0643,0.0676,0.0734,0.0746,0.0716,0.0648,0.0553,0.0445,0.0364,0.0273,0.0242,0.0292,0.0275,0.0204,0.0207,0.0171,0.017,0.017,0.0169,0.0169,0,0.0303,0.0331,0.0411,0.0454,0.0485,0.0563,0.0619,0.0676,0.0726,0.0772,0.0793,0.0753,0.072,0.0553,0.0446,0.0292,0.027,0.0214,0.0205,0.0212,0.0195,0.0198,0.0202,0.0167,0.0167,0.0167,0.0167,0,0.0321,0.035,0.0399,0.0486,0.0552,0.0634,0.0712,0.075,0.0816,0.0838,0.0841,0.0769,0.069,0.0558,0.0445,0.0333,0.024,0.0206,0.0206,0.0197,0.0207,0.0192,0.0196,0.0165,0.0165,0.0165,0.0165,0,0.0335,0.0371,0.0437,0.0517,0.0602,0.0681,0.0725,0.0781,0.0831,0.0871,0.0868,0.0791,0.0748,0.0579,0.0472,0.0363,0.0326,0.0272,0.0268,0.0269,0.0308,0.0335,0.0319,0,0,0,0,0,0.0345,0.0389,0.0462,0.0554,0.0639,0.0692,0.0777,0.0813,0.0864,0.0872,0.0876,0.0808,0.0657,0.0588,0.0478,0.0446,0.0298,0.0308,0.0232,0.0152,0.0154,0.0182,0,0,0,0,0,0,0.0351,0.0417,0.0459,0.057,0.0637,0.0734,0.0792,0.0828,0.0832,0.086,0.0782,0.0761,0.0612,0.0724,0.047,0.0438,0.0368,0.0245,0.0242,0.015,0.0153,0.0155,0.0184,0,0,0,0,0]}]]